Regional Weather Roundup
Issued by NWS San Angelo, TX

Home | Current Version | Previous Version | Text Only | Print | Product List | Glossary On
Versions: 1 2 3 4 5 6 7 8 9 10 11 12 13 14 15 16 17 18 19 20 21 22 23 24 25 26 27 28 29 30 31 32 33 34 35 36 37 38 39 40 41 42 43 44 45 46 47 48 49 50
000
ASUS44 KSJT 041511
RWRSJT
WEST CENTRAL TEXAS REGIONAL WEATHER ROUNDUP
NATIONAL WEATHER SERVICE SAN ANGELO TX
1000 AM CDT FRI SEP 04 2015

NOTE: "FAIR" INDICATES FEW OR NO CLOUDS BELOW 12,000 FEET WITH NO
SIGNIFICANT WEATHER AND/OR OBSTRUCTIONS TO VISIBILITY.

TXZ049-054-064>066-071>073-076>078-098-099-113-114-127-128-139-140-
154-155-168>170-041600
...LOCATIONS ACROSS WEST CENTRAL TEXAS...

CITY           SKY/WX    TMP DP  RH WIND       PRES   REMARKS
SAN ANGELO     SUNNY     80  69  69 S12       29.98R
ABILENE        SUNNY     82  67  60 S14G22    29.98S
DYESS AFB      SUNNY     84  68  58 S14       29.97R
JUNCTION       PTSUNNY   81  70  69 SW8       29.99S
SWEETWATER     SUNNY     81  65  59 S17       30.02S
BROWNWOOD      MOSUNNY   81  70  69 S8        29.99R
COLEMAN        SUNNY     80  69  70 S9        29.99S
SONORA         MOSUNNY   81  70  69 S13       30.04S
OZONA          FAIR      79  68  69 S13       30.03R
BRADY          PTSUNNY   79  72  78 S6        29.99R
$$

TEXAS PANHANDLE/OKLAHOMA PANHANDLE

CITY           SKY/WX    TMP DP  RH WIND       PRES   REMARKS
AMARILLO       MOSUNNY   78  56  46 S13       30.01S
BORGER         MOSUNNY   80  58  46 S12       29.98R
CANADIAN       SUNNY     80  64  58 S10G16    29.96S
DALHART        MOSUNNY   78  53  41 SW10      30.01R
DUMAS          PTSUNNY   76  54  46 S12       30.00R
GUYMON         NOT AVBL
HEREFORD       MOSUNNY   77  56  47 SW8       30.04R
PAMPA          SUNNY     79  60  51 S15       30.00S
PERRYTON       SUNNY     83  59  44 S17       29.96S
$$

SOUTHERN PANHANDLE/SOUTH PLAINS/ROLLING PLAINS

CITY           SKY/WX    TMP DP  RH WIND       PRES   REMARKS
LUBBOCK        MOSUNNY   79  56  45 S12       30.02R
SNYDER         SUNNY     78  65  64 S14       30.00S
CHILDRESS      SUNNY     81  63  54 S13       29.96S
SEMINOLE       SUNNY     79  60  51 S12       30.04R
$$

PERMIAN BASIN

CITY           SKY/WX    TMP DP  RH WIND       PRES   REMARKS
MIDLAND        SUNNY     81  64  56 S15       30.00R
ODESSA         SUNNY     81  63  54 S15       30.01R
WINK           SUNNY     80  62  54 SE16      29.97R
$$

FAR WEST/SOUTHWEST MOUNTAINS/TRANS PECOS

CITY           SKY/WX    TMP DP  RH WIND       PRES   REMARKS
ALPINE         SUNNY     78  54  43 SW8       30.13S
DRYDEN           N/A     81  69  67 S8        29.97R
EL PASO        CLOUDY    79  57  46 S5        30.03R
FORT STOCKTON  SUNNY     81  61  50 S16       29.99R
GUADALUPE PASS PTSUNNY   74  52  46 SW8       30.15R
MARFA          SUNNY     73  54  49 S3        30.12R
PECOS          SUNNY     80  56  43 E10       29.96S
$$

DALLAS/FORT WORTH METROPLEX

CITY           SKY/WX    TMP DP  RH WIND       PRES   REMARKS
DFW AIRPORT    MOSUNNY   84  72  67 S6        29.96S
FTW MEACHAM    SUNNY     84  72  67 S10       29.96S
DAL-EXECUTIVE  SUNNY     83  71  67 SE8       29.97S
GRAND PRAIRIE  MOSUNNY   81  72  74 SE7       29.98S
ADDISON        MOSUNNY   84  70  61 S7        29.99R
MESQUITE       NOT AVBL
LANCASTER      SUNNY     83  70  65 S7        29.98S
$$

NORTH CENTRAL TEXAS

CITY           SKY/WX    TMP DP  RH WIND       PRES   REMARKS
SHRMAN/DENISON SUNNY     86  72  62 S7        29.99S
GAINESVILLE    SUNNY     84  69  61 S6        29.99S
BRIDGEPORT     SUNNY     84  71  64 S7        29.98S
DENTON         SUNNY     84  71  65 S12       29.97R
WAXAHACHIE     SUNNY     83  72  70 SE5       29.98S
GRANBURY       SUNNY     84  71  65 S5        29.97S
$$

WESTERN NORTH TEXAS

CITY           SKY/WX    TMP DP  RH WIND       PRES   REMARKS
WICHITA FALLS  SUNNY     84  69  60 S10       29.96R
VERNON         SUNNY     84  61  45 S13       29.96S
BRECKENRIDGE   SUNNY     84  67  56 SW9       29.97R
COMANCHE       SUNNY     81  72  72 S7        29.98S
$$

CENTRAL AND SOUTH CENTRAL TEXAS

CITY           SKY/WX    TMP DP  RH WIND       PRES   REMARKS
AUSTIN/BERGSTM PTSUNNY   82  73  74 VRB7      29.96R
WACO           SUNNY     83  72  69 S8        29.96S
HILLSBORO      MOSUNNY   82  70  65 S7        29.98R
TEMPLE         MOSUNNY   81  72  74 S8        29.97R
KILLEEN-GRAY   MOSUNNY   82  72  71 S7        29.96S
FORT HOOD      MOSUNNY   82  72  70 S9        29.96R
GEORGETOWN     PTSUNNY   82  72  69 S9G16     29.98S
LAGO VISTA     PTSUNNY   82  72  72 S6        29.99S
SAN MARCOS     PTSUNNY   81  75  83 S8        29.98R
NEW BRAUNFELS  PTSUNNY   84  74  71 SW9       29.95S
RANDOLPH AFB   PTSUNNY   82  72  69 S10       29.96S
SAN ANTONIO    PTSUNNY   82  71  69 S8        29.96R
STINSON        PTSUNNY   84  73  69 S8        29.94R
PLEASANTON     NOT AVBL
LA GRANGE      CLOUDY    82  79  88 CALM      29.94S
GIDDINGS       MOSUNNY   82  74  78 S6        30.00S
$$

EAST TEXAS

CITY           SKY/WX    TMP DP  RH WIND       PRES   REMARKS
PARIS          SUNNY     82  68  61 SW5       29.99S
CLARKSVILLE    NOT AVBL
TYLER          MOSUNNY   82  72  71 SW7       29.99S
LONGVIEW       MOSUNNY   84  72  67 VRB6      29.99R
PALESTINE      MOSUNNY   83  74  76 CALM      29.99S
NACOGDOCHES    MOSUNNY   82  73  74 CALM      29.99S
$$

TEXAS HILL COUNTRY AND EDWARDS PLATEAU

CITY           SKY/WX    TMP DP  RH WIND       PRES   REMARKS
LLANO          PTSUNNY   81  70  69 S8        30.01R
HORSESHOE BAY  PTSUNNY   81  71  70 S6        29.98R
KERRVILLE      MOSUNNY   79  72  78 SE5       29.99S
FREDERICKSBRG  MOSUNNY   81  67  63 SW8       29.99S
ROCKSPRINGS    SUNNY     81  70  69 S12       30.03S
HONDO          PTSUNNY   81  72  74 SE6       29.98R
UVALDE         MOSUNNY   81  73  75 SE9       29.96R
DEL RIO        SUNNY     82  72  71 SE12      29.92R
$$

SOUTHEAST TEXAS

CITY           SKY/WX    TMP DP  RH WIND       PRES   REMARKS
COLLEGE STN    PTSUNNY   82  74  76 S6        29.97R
CALDWELL       PTSUNNY   81  79  94 SE7       29.99S
CROCKETT       MOSUNNY   82  73  74 SE6       30.00F
BRENHAM        MOSUNNY   80  80  99 SE3       29.97S
HUNTSVILLE     MOSUNNY   84  74  71 S7        29.97F
CONROE         PTSUNNY   83  73  72 VRB3      29.97F
HOUSTON BUSH   PTSUNNY   85  76  74 CALM      29.96S
HOUSTON HOBBY  MOSUNNY   83  74  74 S6        29.95S
PERLAND        SUNNY     85  73  67 CALM      29.97S
WHARTON        MOSUNNY   84  76  76 CALM      29.96S
$$

THE UPPER TEXAS COAST

CITY           SKY/WX    TMP DP  RH WIND       PRES   REMARKS
ORANGE         MOSUNNY   83  80  92 CALM      29.99S
PORT ARTHUR    PTSUNNY   80  75  84 E5        29.97R
GALVESTON      LGT RAIN  83  75  77 S8        29.97R
ANGLETON       MOSUNNY   85  77  77 SW5       29.95S
BAY CITY       MOSUNNY   85  79  82 CALM      29.95S
$$

TEXAS COASTAL BEND, RIO GRANDE PLAINS DEEP SOUTH TEXAS

CITY           SKY/WX    TMP DP  RH WIND       PRES   REMARKS
VICTORIA       MOSUNNY   84  79  85 SE5       29.94S
BEEVILLE       FAIR      85  79  81 SE8       29.94S
ROCKPORT       MOSUNNY   87  75  67 S8        29.92S
PORT ARANSAS   SUNNY     87  76  70 S10       29.93S
PORT LAVACA    MOSUNNY   81  76  82 W5        29.94S
CORPUS CHRISTI MOSUNNY   87  75  67 S14       29.92S
KINGSVILLE NAS MOSUNNY   89  79  72 S13       29.92R
COTULLA        PTSUNNY   84  73  69 SE13      29.92S
LAREDO         MOSUNNY   85  74  69 SE12      29.92R
BROWNSVILLE    RAIN      82  76  81 SE9       29.91R
PORT ISABEL    SUNNY     89  79  72 SE12      29.90R
HEBBRONVILLE   NOT AVBL
MCALLEN        PTSUNNY   86  78  77 SE10      29.90S
WESLACO        PTSUNNY   85  77  75 S7        29.90S
FALFURRIAS     MOSUNNY   87  77  72 SE9G17    29.91R
EDINBURG       MOSUNNY   87  77  71 SE8       29.91R
$$



USA.gov is the U.S. government's official web portal to all federal, state and local government web resources and services.